Wetbulb
67.55 66.56 63.77 61.56 59.16 58.58 58.20 58.62 59.80 60.05 60.13 59.71 59.30 59.46 59.11 58.07 58.40 58.85 58.06 56.52 56.73 56.30
67.52 64.72 61.16 61.34 60.82 59.00 59.34 57.74 59.14 59.75 59.27 59.21 58.93 58.51 58.12 57.15 56.90 57.89 57.52 55.79 55.15 54.49
62.75 61.31 60.40 60.42 59.36 58.66 59.12 59.13 58.70 58.17 57.90 57.34 57.43 57.13 56.88 56.65 56.67 56.80 56.51 54.25 53.50 52.27
61.79 61.09 60.63 59.59 59.26 59.03 59.22 58.45 57.61 56.82 56.68 56.04 56.09 56.18 56.33 56.57 56.10 55.50 55.05 53.45 52.05 51.06
61.61 60.59 59.75 58.71 58.44 58.75 57.48 57.50 56.02 55.17 53.87 52.85 52.63 53.54 53.45 54.45 54.66 54.07 53.08 52.86 52.12 50.60
59.67 59.12 58.06 57.57 57.38 56.74 55.28 53.80 53.13 52.07 51.14 50.73 51.85 51.39 52.54 52.79 53.11 53.40 52.64 51.65 50.32 50.67
57.46 57.12 56.78 56.62 55.38 53.67 52.28 51.48 51.10 50.85 50.23 51.31 50.84 50.87 51.42 50.99 50.50 51.26 49.52 49.16 49.17 48.57
57.13 56.40 55.74 53.68 52.44 52.39 51.53 50.89 50.47 50.19 50.03 50.70 50.70 50.36 50.85 49.67 49.01 49.60 48.10 47.74 47.37 47.97
55.12 53.00 51.60 49.95 50.96 50.86 50.72 49.75 49.95 49.47 49.53 50.08 49.77 42.75 42.69 44.76 48.14 46.92 47.14 46.07 46.59 47.64
50.82 49.54 48.63 50.16 49.48 49.45 49.10 49.45 48.93 49.18 49.31 48.44 49.03 42.69 41.57 40.04 46.42 44.46 44.65 44.27 45.22 45.08
49.28 48.31 49.67 49.67 48.75 48.79 48.61 48.36 48.65 47.96 47.12 47.04 47.61 41.67 39.33 37.79 43.79 42.64 42.62 42.42 43.14 42.78
49.40 48.85 48.57 48.15 47.87 48.23 48.34 47.80 47.23 46.71 46.01 46.03 46.44 41.09 39.48 39.66 44.65 41.47 41.32 40.52 40.16 40.40
49.73 48.89 47.91 47.63 47.50 48.42 48.26 47.33 47.46 45.64 45.71 42.94 44.60 41.45 39.06 39.35 43.25 43.64 42.55 41.18 39.86 37.51
49.04 48.07 47.59 47.70 48.08 47.84 46.72 45.70 45.14 43.63 44.68 44.84 43.72 43.01 38.25 37.61 40.74 40.71 39.75 39.09 38.13 38.22
MSLP
1007.84 1008.57 1008.65 1008.87 1009.24 1009.85 1010.48 1011.09 1011.82 1012.43 1013.01 1013.32 1013.41 1013.59 1013.82 1013.92 1013.72 1013.68 1013.81 1013.75 1014.02 1013.77
1007.40 1007.72 1008.15 1008.72 1009.26 1009.75 1010.34 1010.86 1011.51 1012.23 1012.76 1013.03 1013.16 1013.26 1013.35 1013.39 1013.48 1013.30 1013.36 1013.60 1013.68 1013.89
1007.33 1007.78 1008.17 1008.89 1009.49 1009.66 1010.30 1011.04 1011.51 1012.08 1012.53 1012.77 1012.89 1013.13 1013.16 1013.20 1013.10 1012.85 1012.64 1012.98 1013.24 1013.41
1006.69 1007.33 1008.04 1008.62 1009.19 1009.79 1010.29 1010.91 1011.28 1011.70 1011.85 1012.05 1012.06 1012.27 1012.43 1012.39 1012.25 1012.11 1012.12 1012.40 1012.67 1012.88
1006.57 1007.39 1007.85 1008.38 1008.96 1009.49 1010.05 1010.68 1011.16 1011.31 1011.51 1011.54 1011.51 1011.54 1011.47 1011.48 1011.31 1011.33 1011.56 1011.51 1011.87 1012.20
1006.77 1007.28 1007.72 1008.26 1008.77 1009.53 1010.04 1010.33 1010.72 1010.97 1011.03 1011.06 1011.26 1011.14 1011.03 1010.90 1010.68 1010.47 1010.59 1010.91 1011.31 1011.56
1006.65 1007.12 1007.66 1008.32 1008.97 1009.56 1009.77 1010.14 1010.34 1010.38 1010.60 1010.80 1010.82 1010.79 1010.49 1010.27 1010.54 1010.91 1011.12 1011.11 1011.47 1011.45
1006.16 1006.65 1007.34 1008.25 1008.67 1009.22 1009.76 1009.90 1009.95 1009.96 1010.11 1010.49 1010.42 1010.54 1010.73 1010.83 1010.91 1010.73 1010.94 1011.00 1011.13 1011.23
1005.78 1006.49 1007.30 1007.93 1008.40 1008.82 1009.16 1009.19 1009.52 1009.88 1010.36 1010.54 1010.55 1010.78 1010.71 1010.78 1011.01 1010.61 1010.45 1010.73 1010.73 1010.85
1005.89 1006.19 1006.90 1007.46 1007.98 1008.35 1008.71 1008.98 1009.66 1010.17 1010.23 1010.56 1010.69 1011.09 1011.28 1011.10 1010.83 1010.77 1010.43 1010.44 1010.49 1010.48
1006.13 1006.53 1006.96 1007.56 1008.01 1008.46 1008.46 1008.85 1009.36 1009.91 1010.44 1010.63 1010.51 1010.65 1010.85 1011.41 1011.38 1010.62 1010.32 1010.16 1010.25 1010.49
1005.43 1005.92 1006.63 1007.67 1008.18 1008.45 1008.67 1009.18 1009.46 1009.77 1010.09 1010.24 1010.50 1010.42 1010.55 1010.60 1010.85 1010.69 1010.24 1010.14 1009.98 1010.23
1005.92 1006.02 1006.38 1006.94 1007.59 1007.71 1008.43 1008.89 1009.11 1009.71 1010.22 1010.18 1010.16 1009.90 1010.40 1010.48 1010.80 1010.20 1009.95 1010.03 1009.81 1010.01
1006.06 1006.54 1006.73 1007.02 1007.32 1007.67 1008.20 1009.31 1009.47 1009.78 1009.92 1009.78 1009.96 1009.86 1010.13 1010.39 1010.49 1010.17 1009.92 1009.76 1009.59 1009.72
Wind_Speed
13 9 11 12 9 8 7 7 6 6 6 7 8 8 9 9 10 10 9 11 11 10
12 13 10 10 8 7 6 4 5 4 6 7 10 10 11 9 11 11 10 11 11 10
12 10 10 9 10 9 6 5 5 6 7 9 10 11 12 10 12 12 10 8 9 9
12 12 11 9 9 8 7 5 6 7 9 10 11 11 11 13 14 15 13 11 10 10
10 10 11 11 10 8 8 6 6 6 8 9 10 11 13 14 14 15 16 14 11 11
10 11 12 11 10 9 7 6 6 7 7 10 10 12 12 13 14 14 14 11 7 11
13 12 11 10 9 7 6 6 6 6 9 10 12 13 14 13 13 12 6 5 7 9
13 13 12 10 9 7 5 5 5 8 10 12 11 10 10 8 10 13 9 7 8 9
14 13 10 7 9 7 7 5 6 8 11 11 9 9 7 9 11 10 11 9 10 9
12 12 8 8 7 6 4 4 7 9 9 11 11 9 8 7 8 9 7 8 8 4
11 8 8 7 5 4 3 5 6 7 8 10 10 5 5 7 8 6 7 5 5 5
11 10 8 6 4 3 3 4 6 6 8 8 10 6 6 4 7 6 7 5 5 5
8 6 7 5 4 3 4 6 4 6 7 8 9 4 6 6 7 8 6 6 5 8
7 6 5 4 4 4 3 3 1 5 7 8 7 7 6 6 7 6 5 3 3 4
Wind_Direction
204 188 196 191 182 192 191 197 187 204 227 246 255 257 253 256 252 255 248 251 254 262
191 202 195 174 191 182 191 205 207 229 241 251 254 253 257 251 259 253 245 248 257 265
195 198 190 181 189 190 192 194 205 220 234 253 262 262 263 264 256 255 250 230 239 244
191 185 193 191 197 194 193 193 213 232 244 257 263 266 265 260 261 263 262 237 225 230
183 187 195 192 191 179 186 198 230 251 265 276 277 279 280 277 272 269 270 266 242 231
195 197 196 189 183 169 188 203 228 249 271 290 291 289 280 281 280 281 281 273 264 250
196 196 189 177 169 179 191 223 255 286 302 295 287 285 283 276 290 284 271 258 257 251
189 184 174 164 173 181 207 241 289 301 293 290 294 288 307 307 291 271 259 231 232 233
179 164 166 170 182 193 220 265 303 302 295 298 296 338 244 248 269 267 254 247 236 229
170 169 170 178 194 215 255 315 297 291 304 302 295 307 278 246 269 267 252 235 248 229
171 175 174 189 211 239 284 296 310 306 308 298 296 315 274 291 288 263 247 241 233 218
175 181 176 203 232 279 319 304 276 275 291 282 288 310 298 292 276 258 252 229 201 207
183 189 188 200 224 215 246 261 285 280 288 278 284 284 28 345 295 278 267 243 225 222
176 187 204 219 219 233 230 271 235 278 285 287 283 293 16 329 294 275 271 240 218 217